Tracking 18033 objects as of 23-March-2017
HD Live streaming from Space Station
objects crossing your sky now

COSMOS 1932

Track COSMOS 1932 now!
10-day predictions
COSMOS 1932 is classified as:


NORAD ID: 18957
Int'l Code: 1988-019A
Perigee: 928.2 km
Apogee: 1,016.2 km
Inclination: 65.0 °
Period: 104.4 minutes
Semi major axis: 7343 km
RCS: 2.9305 m2 (large)
Launch date: March 14, 1988
Source: Commonwealth of Independent States (former USSR) (CIS)
Launch site: TYURATAM MISSILE AND SPACE COMPLEX (TTMTR)
Your satellite tracking list
Your tracking list is empty





NASA's NSSDC Master Catalog

Two Line Element Set (TLE):
1 18957U 88019A   17080.60360714 -.00000090 +00000-0 -22203-5 0  9994
2 18957 065.0441 155.0960 0059859 286.4372 073.0113 13.79668274463580
Source of the keplerian elements: AFSPC